Location: Regensburg
(48.4565°N, 10.3217°E)
Time: 20:26:43
(UTC+01:00)

ISS - Pass Details

Date: 04 January 2018
Orbit: 402 x 407 km, 51.6° (Epoch: 20 January)

Event Time Altitude Azimuth Distance (km) Brightness Sun altitude
Exits shadow 05:21:15 20° 69° (ENE) 999 -1.2 -27.0°
Drops below altitude 10° 05:22:26 10° 69° (ENE) 1,470 -0.2 -26.8°
Sets 05:24:31 0° 69° (ENE) 2,334 1.0 -26.4°
